This is the latest recevied weather packets stored in our database for station/object SQ3MKP-13. If no packets are shown the sender has not sent any weather packets the latest 10 day(s).
| Time | Temp. | Humidity | Pressure | Rain* | Wind** | Luminosity | Snow |
|---|---|---|---|---|---|---|---|
| 1787931504 | 24.44° C | 45% | 1003.7 hPa | - | - | 143 W/m² | - |
| 1787931203 | 24.44° C | 45% | 1004 hPa | - | - | 84 W/m² | - |
| 1787930902 | 24.44° C | 44% | 1004.1 hPa | - | - | 72 W/m² | - |
| 1787930601 | 24.44° C | 44% | 1004.1 hPa | - | - | 59 W/m² | - |
| 1787930301 | 24.44° C | 44% | 1004 hPa | - | - | 40 W/m² | - |
| 1787929999 | 24.44° C | 44% | 1003.7 hPa | - | - | 31 W/m² | - |
| 1787929698 | 24.44° C | 44% | 1003.2 hPa | - | - | 32 W/m² | - |
| 1787929398 | 24.44° C | 44% | 1003 hPa | - | - | 39 W/m² | - |
| 1787929096 | 24.44° C | 44% | 1002.9 hPa | - | - | 47 W/m² | - |
| 1787928796 | 24.44° C | 44% | 1002.9 hPa | - | - | 44 W/m² | - |
| 1787928495 | 25° C | 45% | 1002.9 hPa | - | - | 33 W/m² | - |
| 1787928193 | 25° C | 45% | 1002.8 hPa | - | - | 33 W/m² | - |
| 1787927893 | 25° C | 45% | 1002.9 hPa | - | - | 43 W/m² | - |
| 1787927591 | 25° C | 46% | 1003 hPa | - | - | 54 W/m² | - |
| 1787927297 | 25° C | 46% | 1003.1 hPa | - | - | 49 W/m² | - |
| 1787926990 | 25° C | 46% | 1003 hPa | - | - | 42 W/m² | - |
| 1787926688 | 25° C | 46% | 1003 hPa | - | - | 47 W/m² | - |
| 1787926387 | 25° C | 46% | 1003 hPa | - | - | 60 W/m² | - |
| 1787926086 | 25° C | 46% | 1003.1 hPa | - | - | 92 W/m² | - |
| 1787925785 | 25° C | 46% | 1003.1 hPa | - | - | 97 W/m² | - |
| 1787925485 | 25.56° C | 46% | 1003.1 hPa | - | - | 81 W/m² | - |
| 1787925184 | 25.56° C | 46% | 1003 hPa | - | - | 91 W/m² | - |
| 1787924882 | 25.56° C | 45% | 1003.2 hPa | - | - | 98 W/m² | - |
| 1787924581 | 25.56° C | 45% | 1003.2 hPa | - | - | 102 W/m² | - |
| 1787924280 | 25.56° C | 45% | 1003.3 hPa | - | - | 86 W/m² | - |
* Rain since midnight (hover to see other rain measurements)
** Current wind speed in m/s (hover to see current wind gust speed)